Погода в Коневе

Россия / Костромская область     58°05′00″N   45°55′24″E
темп.,
°C
ветер,
м/с
пор.,
м/с
влажн.,
%
обл.,
%
осадки,
мм/ч
давл.,
гПа
погр.,
м
20 мая, пт
пт2000:00+1ссз2397100 0.1 101071
03:00+1ссз3998100 0.3 1010398
06:00+2сз4998100 1.8 1012389
09:00+5ссз477638 1.9 10131157
12:00+7с576092 0.9 10131664
15:00+8с576391 2.0 10131701
18:00+6с487685 0.8 10141090
21:00+2с2592100 0.9 1014121
21 мая, сб
сб2100:00+2ссз2694100 0.0 1013145
03:000ссз3995100 0.0 1013300
06:00+2ссз488297 0.0 1012418
09:00+6с465596 0.0 10111665
12:00+7ссз4658100 0.1 10101619
15:00+6с4660100 0.5 10101344
18:00+6с355883 0.3 10091354
21:00+2ссв2687100 0.4 1009210
22 мая, вс
вс2200:00+1ссз2792100 0.0 1007273
03:00+1ссз3898100 0.1 1007410
06:00+2ссз468293 0.1 1005734
09:00+3ссз457293 0.2 10041040
12:00+5ссз4666100 0.3 10031280
15:00+6ссз5764100 0.4 10021318
18:00+5ссз4985100 0.4 1002985
21:00+3сз4997100 0.7 1001767
23 мая, пн
пн2300:00+2сз4997100 0.1 999820
03:00+2ссз4998100 0.8 998792
06:00+1ссз41098100 0.6 998471
09:00+2сз4997100 1.0 998568
12:00+4сз4785100 0.4 9981061
15:00+4сз4785100 0.8 999889
18:00+3сз479494 0.3 1000545
21:00+2сз3798100 0.5 1000542
24 мая, вт
вт2400:00+1зсз3798100 0.2 1000360
03:00+1зсз2599100 1.1 1001263
06:00+1ссз2698100 1.0 1002354
09:00+2ссз3698100 1.2 1004447
12:00+3с3593100 0.3 1007578
15:00+5с3585100 0.8 1008919
18:00+5с3692100 0.4 1010616
21:00+3ссз2798100 0.4 1012293